Location: Seattle
(47.6064°N, 122.3308°W)
Time: 05:22:04
(UTC-07:00)

S-56A Canister/Altair - Visible Passes

Search period start: 03 October 2022 00:00
Search period end: 13 October 2022 00:00
Orbit: 637 x 2496 km, 38.9° (Epoch: 02 October)

Date Brightness Start Highest point End Pass type
(mag) Time Alt. Az. Time Alt. Az. Time Alt. Az.
03 Oct 10.5 02:27:01 17° ESE 02:27:01 17° ESE 02:28:42 10° E visible
03 Oct 9.0 04:24:26 45° SSW 04:25:16 47° S 04:31:47 10° ESE visible
03 Oct 9.1 06:21:52 11° W 06:28:39 32° SSW 06:33:44 10° SE visible
04 Oct 10.9 01:56:04 10° E 01:56:04 10° E 01:56:11 10° E visible
04 Oct 9.1 03:53:29 46° SSE 03:53:29 46° SSE 03:59:27 10° ESE visible
04 Oct 9.0 05:50:55 19° WSW 05:56:05 36° SSW 06:01:37 10° SE visible
05 Oct 9.6 03:22:33 37° SE 03:22:33 37° SE 03:27:05 10° ESE visible
05 Oct 9.0 05:19:59 29° WSW 05:23:27 40° SSW 05:29:27 10° SE visible
06 Oct 10.1 02:51:39 26° ESE 02:51:39 26° ESE 02:54:40 10° ESE visible
06 Oct 9.0 04:49:05 40° SW 04:50:44 44° SSW 04:57:15 10° SE visible
07 Oct 10.6 02:20:48 16° ESE 02:20:48 16° ESE 02:22:11 10° E visible
07 Oct 9.1 04:18:14 47° S 04:18:14 47° S 04:25:00 10° ESE visible
07 Oct 9.5 06:15:40 13° W 06:21:02 24° SW 06:26:01 10° SSE visible
08 Oct 9.4 03:47:26 42° SSE 03:47:26 42° SSE 03:52:40 10° ESE visible
08 Oct 9.5 05:44:52 21° WSW 05:48:28 28° SSW 05:54:06 10° SSE visible
09 Oct 9.9 03:16:41 30° SE 03:16:41 30° SE 03:20:18 10° ESE visible
09 Oct 9.4 05:14:08 30° SW 05:15:50 32° SSW 05:22:05 10° SSE visible
09 Oct 11.4 22:17:53 10° SSW 22:18:48 12° SSW 22:18:48 12° SSW visible
10 Oct 10.5 02:46:00 19° ESE 02:46:00 19° ESE 02:47:51 10° ESE visible
10 Oct 9.4 04:43:28 37° SSW 04:43:28 37° SSW 04:49:58 10° SE visible
10 Oct 10.2 06:42:45 10° WSW 06:45:22 12° SW 06:47:44 10° SSW visible
10 Oct 11.1 21:45:06 10° S 21:48:37 17° S 21:48:37 17° S visible
11 Oct 9.6 04:12:51 35° S 04:12:51 35° S 04:17:47 10° SE visible
11 Oct 10.1 06:10:19 14° WSW 06:12:53 15° SW 06:16:57 10° SSW visible
11 Oct 10.9 21:12:28 10° S 21:18:24 20° SSE 21:18:24 20° SSE visible
11 Oct 11.3 23:13:55 10° SW 23:15:53 15° SW 23:15:53 15° SW visible
12 Oct 10.0 03:42:19 26° SSE 03:42:19 26° SSE 03:45:31 10° SE visible
12 Oct 10.0 05:39:47 19° SW 05:40:20 19° SW 05:45:32 10° S visible
12 Oct 10.9 20:40:03 10° S 20:48:08 21° SE 20:48:08 21° SE visible
12 Oct 11.0 22:40:40 10° SW 22:45:37 23° SSW 22:45:37 23° SSW visible
